Location: Estes Park
(40.3770°N, 105.5210°W)
Time: 06:11:04
(UTC-07:00)

Envisat - Pass Details

Date: 13 October 2017
Orbit: 764 x 766 km, 98.2° (Epoch: 10 December)

Event Time Altitude Azimuth Distance (km) Brightness Sun altitude
Exits shadow 20:37:10 51° 22° (NNE) 962 3.3 -25.9°
Drops below altitude 10° 20:41:08 10° 354° (N) 2,309 5.7 -26.7°
Sets 20:43:28 0° 351° (N) 3,239 6.5 -27.1°
